Hourly Data Report for May 17, 2020

All times are specified in Local Standard Time (LST). Add 1 hour to adjust for Daylight Saving Time where and when it is observed.

OTTAWA INTL A
ONTARIO
Current Station Operator: NAVCAN

45°19'00.000" N
75°40'00.000" W
114.90 m
6106001
71628
YOW

Download Data

Hourly Data (May 2020)
Hourly Data Report for May 17, 2020
TIME Temp Definition
°C
Dew Point Definition
°C
Rel Hum Definition
%
Wind Dir Definition
10's deg

Wind Spd Definition
km/h
Visibility Definition
km
Stn Press Definition
kPa
Hmdx Definition


Wind Chill Definition


Weather Definition


00:00 9.2 5.3 76 27 5 24.1 101.03     LegendNANA
01:00 10.5 4.9 68 35 14 24.1 101.01     Mainly Clear
02:00 10.1 4.6 69 1 16 24.1 101.04     LegendNANA
03:00 8.9 4.5 74 2 14 24.1 101.05     LegendNANA
04:00 8.3 3.8 73 2 10 24.1 101.11     Mainly Clear
05:00 7.8 3.8 76 5 10 24.1 101.14     LegendNANA
06:00 9.5 4.8 72 5 10 24.1 101.22     LegendNANA
07:00 11.8 4.7 61 4 17 24.1 101.29     Cloudy
08:00 13.8 4.5 53 6 21 24.1 101.29     LegendNANA
09:00 15.1 3.7 46 11 22 24.1 101.25     LegendNANA
10:00 16.5 5.4 48 9 14 24.1 101.23     Mostly Cloudy
11:00 17.1 4.7 43 11 14 24.1 101.17     LegendNANA
12:00 17.6 5.0 43 10 8 24.1 101.12     LegendNANA
13:00 18.4 4.4 39 6 5 24.1 101.06     Mostly Cloudy
14:00 19.0 3.0 34 4 12 24.1 101.04     LegendNANA
15:00 18.7 2.2 33 9 5 24.1 100.99     LegendNANA
16:00 19.1 4.1 37 8 5 24.1 100.94     Mostly Cloudy
17:00 18.8 4.8 39 14 14 24.1 100.90     LegendNANA
18:00 17.6 6.0 46 13 7 24.1 100.88     LegendNANA
19:00 16.4 5.4 48 11 4 24.1 100.85     Cloudy
20:00 15.2 5.8 53 32 3 24.1 100.88     LegendNANA
21:00 15.9 5.4 49 34 7 22.5 100.90     LegendNANA
22:00 15.3 6.3 55 3 5 24.1 100.89     Cloudy
23:00 14.3 5.5 55 9 7 24.1 100.90     LegendNANA

Notes on Data Quality.

Legend

  • E = Estimated
  • M = Missing
  • NA = Not Available*
  • [empty] = Indicates an unobserved value
Date modified: